Hourly Data Report for September 29, 2017

All times are specified in Local Standard Time (LST). Add 1 hour to adjust for Daylight Saving Time where and when it is observed.

CORAL HARBOUR A
NUNAVUT

64°11'36.000" N
83°21'34.000" W
62.20 m
2301002
71915
YZS

Download Data

Hourly Data (September 2017)
Hourly Data Report for September 29, 2017
Temp Definition
°C
Dew Point Temp Definition
°C
Rel Hum Definition
%
Wind Dir Definition
10's deg

Wind Spd Definition
km/h
Visibility Definition
km
Stn Press Definition
kPa
Hmdx Definition


Wind Chill Definition


Weather Definition


TIME
00:00 Legend Double Dagger -4.5 -6.9 83 31 8 24.1 101.35   -8 LegendNANA
01:00 Legend Double Dagger -4.0 -6.8 81 29 5 24.1 101.33   -6 Mainly Clear
02:00 Legend Double Dagger -3.8 -7.3 77 31 6 24.1 101.30   -6 LegendNANA
03:00 Legend Double Dagger -4.4 -6.6 85 32 12 24.1 101.30   -9 LegendNANA
04:00 Legend Double Dagger -4.4 -6.2 87 32 9 24.1 101.30   -8 Mainly Clear
05:00 Legend Double Dagger -5.0 -6.9 87 1 10 24.1 101.27   -9 LegendNANA
06:00 Legend Double Dagger -5.2 -6.7 89 27 7 24.1 101.26   -8 LegendNANA
07:00 Legend Double Dagger -3.9 -6.0 85 21 7 24.1 101.19   -7 Cloudy
08:00 Legend Double Dagger -3.2 -5.7 83 15 13 24.1 101.07   -8 LegendNANA
09:00 Legend Double Dagger -2.0 -4.6 83 16 19 24.1 100.94   -8 LegendNANA
10:00 Legend Double Dagger -0.5 -5.2 71 19 23 24.1 100.79   -6 Cloudy
11:00 Legend Double Dagger 0.0 -4.9 70 19 29 24.1 100.68   -6 LegendNANA
12:00 Legend Double Dagger 0.2 -4.1 73 20 28 19.3 100.53     Snow Showers
13:00 Legend Double Dagger -0.8 -1.6 94 20 30 0.8 100.36   -8 Moderate Snow,Blowing Snow
14:00 Legend Double Dagger -0.7 -1.6 93 20 30 1.6 100.19   -7 Snow,Blowing Snow
15:00 Legend Double Dagger -0.9 -1.5 96 20 23 0.4 99.99   -7 Heavy Snow
16:00 Legend Double Dagger -0.4 -0.8 97 19 28 0.4 99.78   -7 Heavy Snow
17:00 Legend Double Dagger -0.2 -0.6 97 18 36 0.4 99.56   -7 Heavy Snow
18:00 Legend Double Dagger -0.2 -0.5 98 17 43 0.8 99.34   -8 Moderate Snow
19:00 Legend Double Dagger -0.1 -0.4 98 16 49 0.8 99.04   -8 Moderate Snow
20:00 Legend Double Dagger 0.0 -0.2 98 15 37 1.2 98.86   -7 Snow
21:00 Legend Double Dagger 0.0 -0.2 99 15 27 0.8 98.60   -6 Moderate Snow
22:00 Legend Double Dagger 0.1 0.0 99 14 18 0.8 98.36     Moderate Snow
23:00 Legend Double Dagger 0.4 0.2 99 13 13 0.4 98.16     Heavy Drizzle

Notes on Data Quality.

Legend

  • E = Estimated
  • M = Missing
  • NA = Not Available
  • ‡ = Partner data that is not subject to review by the National Climate Archives
Date modified: